STARLINK-35591

Last updated on Fri Dec 19 2025 00:02:09 GMT+0000 (Coordinated Universal Time)

1 66984U 25288AB 25352.58336806 -.01542141 00000+0 -67422-2 0 9996 2 66984 43.0014 131.2870 0001519 267.3972 350.8257 15.86383390 2773
UTC large
Height (km)
Speed (km/s)
/
Latitude / Longitude
Inclination (degrees)
Orbital Period (minutes)
Azimuth
Elevation
Range (km)
Doppler Factor

Next 0 passes for location: London (51.5072 / 0.1276)

Sorry there are no passes over London.